{"data":{"norad_id":66521,"intl_designator":"2025-265F","name":"STARLINK-35915","alt_names":[],"object_type":"PAYLOAD","status":"ACTIVE","operator":null,"country":"US","launch_date":"2025-11-19","launch_site_code":"AFETR","launch_vehicle":null,"mission":null,"orbit_class":"UNKNOWN","rcs_meters":null,"size_class":null,"mass_kg":null,"dimensions":null,"purposes":["comms"],"wikipedia_slug":null,"has_3d_model":false,"image_url":null,"decayed_at":null,"tle_current":{"epoch":"2026-05-25T04:44:31.886592Z","epoch_age_seconds":54183,"freshness":"FRESH","line1":"1 66521U 25265F   26145.19759128  .00020512  00000+0  75257-3 0  9998","line2":"2 66521  42.9975 205.9196 0001331 275.9071  84.1629 15.27591172 28818","mean_motion":15.27591172,"eccentricity":0.0001331,"inclination_deg":42.9975,"raan_deg":205.9196,"arg_perigee_deg":275.9071,"mean_anomaly_deg":84.1629,"bstar":0.00075257,"rev_number":2881,"period_min":94.266059296132,"perigee_km":482.10242383961,"apogee_km":483.92886267325,"semimajor_km":6861.1526432564,"source":"CELESTRAK","updated_at":"2026-05-25T13:38:21.249874Z"}}}